JES3043 SAEZ-SAZS

Flight info

Callsign JES3043
Flight time N/A
Altitude 36000
Route TORUL1J TORUL UT654 ORERA ORERA2Q
Aircraft A320/M-SDE3FGHIRWY/LB1

Departure

Time 2026-04-29 16:21
Airport Ezeiza International Airport - Ministro Pistarini (SAEZ)

Arrival

Time N/A
Airport Teniente Luis Candelaria International Airport (SAZS)
Time Latitude Longitude Altitude Speed Heading
2026-04-29 15:47 -34.81358 -58.53707 75 ft 0 kts 309°
2026-04-29 16:10 -34.81366 -58.53695 75 ft 4 kts 309°
2026-04-29 16:10 -34.81383 -58.53670 67 ft 4 kts 309°
2026-04-29 16:10 -34.81401 -58.53645 65 ft 4 kts 309°
2026-04-29 16:10 -34.81414 -58.53624 75 ft 4 kts 279°
2026-04-29 16:11 -34.81407 -58.53606 64 ft 4 kts 202°
2026-04-29 16:11 -34.81399 -58.53602 75 ft 4 kts 194°
2026-04-29 16:11 -34.81426 -58.53610 75 ft 4 kts 194°
2026-04-29 16:11 -34.81431 -58.53611 75 ft 0 kts 194°
2026-04-29 16:14 -34.81437 -58.53614 70 ft 4 kts 195°
2026-04-29 16:14 -34.81482 -58.53635 75 ft 9 kts 204°
2026-04-29 16:14 -34.81542 -58.53675 75 ft 12 kts 213°
2026-04-29 16:15 -34.81607 -58.53742 68 ft 13 kts 224°
2026-04-29 16:15 -34.81685 -58.53758 68 ft 13 kts 151°
2026-04-29 16:15 -34.81764 -58.53710 72 ft 13 kts 155°
2026-04-29 16:15 -34.81845 -58.53665 72 ft 13 kts 155°
2026-04-29 16:16 -34.81911 -58.53598 70 ft 13 kts 118°
2026-04-29 16:16 -34.81932 -58.53492 75 ft 13 kts 102°
2026-04-29 16:16 -34.81954 -58.53383 68 ft 13 kts 104°
2026-04-29 16:16 -34.81976 -58.53272 75 ft 14 kts 103°
2026-04-29 16:17 -34.81998 -58.53161 68 ft 13 kts 103°
2026-04-29 16:17 -34.82020 -58.53055 78 ft 12 kts 104°
2026-04-29 16:17 -34.82040 -58.52959 84 ft 12 kts 103°
2026-04-29 16:17 -34.82059 -58.52858 72 ft 14 kts 103°
2026-04-29 16:18 -34.82084 -58.52731 72 ft 17 kts 103°
2026-04-29 16:18 -34.82114 -58.52581 70 ft 19 kts 103°
2026-04-29 16:18 -34.82147 -58.52416 69 ft 21 kts 103°
2026-04-29 16:18 -34.82183 -58.52239 67 ft 22 kts 104°
2026-04-29 16:19 -34.82220 -58.52050 75 ft 24 kts 103°
2026-04-29 16:19 -34.82260 -58.51851 75 ft 23 kts 104°
2026-04-29 16:19 -34.82314 -58.51785 71 ft 12 kts 188°
2026-04-29 16:19 -34.82400 -58.51809 72 ft 13 kts 193°
2026-04-29 16:20 -34.82482 -58.51835 82 ft 12 kts 203°
2026-04-29 16:20 -34.82504 -58.52016 80 ft 39 kts 283°
2026-04-29 16:20 -34.82398 -58.52602 81 ft 99 kts 282°
2026-04-29 16:20 -34.82218 -58.53601 87 ft 142 kts 282°
2026-04-29 16:21 -34.82000 -58.54808 566 ft 146 kts 281°
2026-04-29 16:21 -34.81790 -58.56032 1130 ft 150 kts 282°
2026-04-29 16:21 -34.81570 -58.57322 1523 ft 167 kts 282°
2026-04-29 16:21 -34.81327 -58.58785 1919 ft 184 kts 281°
2026-04-29 16:22 -34.81068 -58.60422 2172 ft 211 kts 273°
2026-04-29 16:22 -34.81491 -58.62196 2567 ft 234 kts 238°
2026-04-29 16:22 -34.82568 -58.63727 3454 ft 239 kts 227°
2026-04-29 16:22 -34.83766 -58.65131 4430 ft 240 kts 228°
2026-04-29 16:23 -34.84976 -58.66555 5295 ft 244 kts 231°
2026-04-29 16:23 -34.86159 -58.68052 6134 ft 246 kts 235°
2026-04-29 16:23 -34.87265 -58.69650 6961 ft 248 kts 236°
2026-04-29 16:23 -34.88357 -58.71284 7806 ft 250 kts 236°
2026-04-29 16:24 -34.89451 -58.72937 8651 ft 252 kts 236°
2026-04-29 16:24 -34.90556 -58.74607 9481 ft 254 kts 236°
2026-04-29 16:24 -34.91674 -58.76298 10216 ft 260 kts 236°
2026-04-29 16:24 -34.92854 -58.78091 10455 ft 283 kts 235°
2026-04-29 16:25 -34.94128 -58.80030 10732 ft 301 kts 235°
2026-04-29 16:25 -34.95454 -58.82034 11342 ft 306 kts 234°
2026-04-29 16:25 -34.96802 -58.84059 12030 ft 309 kts 234°
2026-04-29 16:25 -34.98162 -58.86105 12732 ft 311 kts 234°
2026-04-29 16:26 -34.99530 -58.88169 13414 ft 314 kts 233°
2026-04-29 16:26 -35.00905 -58.90249 14042 ft 316 kts 233°
2026-04-29 16:26 -35.02292 -58.92349 14642 ft 319 kts 233°
2026-04-29 16:26 -35.03689 -58.94465 15235 ft 321 kts 234°
2026-04-29 16:27 -35.05094 -58.96594 15821 ft 324 kts 234°
2026-04-29 16:27 -35.06513 -58.98746 16407 ft 326 kts 234°
2026-04-29 16:27 -35.07939 -59.00910 16993 ft 329 kts 234°
2026-04-29 16:27 -35.09379 -59.03094 17569 ft 332 kts 234°
2026-04-29 16:28 -35.10833 -59.05297 18156 ft 335 kts 234°
2026-04-29 16:28 -35.12301 -59.07521 18660 ft 337 kts 234°
2026-04-29 16:28 -35.13778 -59.09766 19195 ft 340 kts 234°
2026-04-29 16:28 -35.15264 -59.12032 19717 ft 343 kts 235°
2026-04-29 16:29 -35.16760 -59.14311 20236 ft 345 kts 235°
2026-04-29 16:29 -35.18268 -59.16607 20746 ft 348 kts 235°
2026-04-29 16:29 -35.19785 -59.18917 21241 ft 350 kts 235°
2026-04-29 16:29 -35.21315 -59.21250 21716 ft 352 kts 235°
2026-04-29 16:30 -35.22848 -59.23595 22187 ft 354 kts 236°
2026-04-29 16:30 -35.24394 -59.25956 22655 ft 357 kts 236°
2026-04-29 16:30 -35.25952 -59.28334 23123 ft 359 kts 236°
2026-04-29 16:30 -35.27517 -59.30728 23568 ft 361 kts 236°
2026-04-29 16:31 -35.29091 -59.33137 23962 ft 363 kts 235°
2026-04-29 16:31 -35.30673 -59.35558 24357 ft 365 kts 235°
2026-04-29 16:31 -35.32241 -59.37961 24734 ft 367 kts 235°
2026-04-29 16:31 -35.33838 -59.40412 25107 ft 369 kts 236°
2026-04-29 16:32 -35.35444 -59.42882 25474 ft 372 kts 236°
2026-04-29 16:32 -35.36527 -59.44563 25724 ft 373 kts 236°
2026-04-29 16:32 -35.38585 -59.47941 26210 ft 374 kts 238°
2026-04-29 16:32 -35.40105 -59.50542 26559 ft 376 kts 238°
2026-04-29 16:33 -35.43134 -59.55819 27283 ft 381 kts 239°
2026-04-29 16:33 -35.44663 -59.58470 27630 ft 383 kts 239°
2026-04-29 16:33 -35.46212 -59.61140 27999 ft 385 kts 238°
2026-04-29 16:34 -35.47776 -59.63825 28348 ft 388 kts 238°
2026-04-29 16:34 -35.49349 -59.66521 28700 ft 390 kts 238°
2026-04-29 16:34 -35.50933 -59.69236 29040 ft 392 kts 238°
2026-04-29 16:34 -35.51952 -59.70985 29258 ft 394 kts 238°